STARLINK-11605, 63134

Orbit data source: Space-Track

STARLINK-11605, 63134 is a payload satellite owned by SpaceX/Seattle (US) in LEO that was launched on Mon, 03 Mar 2025 UTC via an FALCON 9 launch vehicle from the Air Force Eastern Test Range (AFETR). Payload-class satellites include a variety of spacecraft equipped with specific instruments for various scientific and technological missions. These include communications satellites like Starlink; space stations such as the ISS; scientific satellites like the Hubble; Earth observation satellites from companies like Planet Labs, Umbra, and HawkEye 360; GPS; miniature CubeSats for education and research; and military/defense satellites.

Loading next visibility...
Identifier
63134, 2025-043C
Orbit
LEO
Country
Flag of USUS
Related business
Manufacturer
SpaceX/Seattle
Mission
Operational Commercial Communications
Bus & Motor
STARLINK V2MD, Unknown motor
Mass
960 kg wet, ~910 kg dry
Launch date (UTC)
2025-03-03 (1 year ago)
Launch vehicle
FALCON 9
Launch site
Air Force Eastern Test Range (AFETR)
Object type
Payload
Rocket body
Debris
Shape & HBR
Box + 2 Pan, 18.1 m
Radar Cross Section
36.964 m², Large (>1 m²)

Expand to show TLE details & history
Last TLE update: 15 hours ago

TLE from 15 hours ago
0 STARLINK-11605
1 63134U 25043C   26171.20844145  .00151051  00000-0  11575-2 0  9990
2 63134  42.9990 352.9522 0000997 304.5959  55.4815 15.70879459 75476
Epoch: 2026-06-20T05:00Z
TLE epoch observation values (Epoch: 2026-06-20T05:00:09.341Z)
Latitude
0.00002°
Longitude
9.48694°
Altitude
355.773 km
Speed
7.698 km/s
True Right ascension
23h 31m 48s
True Declination
0° 00' 00"
Sunlit
Object was in daylight at epoch
Visualization orbit readout
Latitude
Unknown
Longitude
Unknown
Altitude
Unknown
Speed
Unknown
Apparent Right ascension
Unknown
Apparent Declination
Unknown
Sunlit
N/A
Visualization observer readout
Local Sidereal Time
07:20:23
Azimuth
Unknown
Elevation
Unknown
Doppler factor
Unknown
Orbital elements
Apogee altitude
359.036 km
Perigee altitude
357.692 km
Semi-major axis
6,736.501 km
Eccentricity
0.0001
Inclination
42.999°
RAAN
352.9522°
Arg. of periapsis
304.5959°
True anomaly
55.49091°
Mean anomaly
55.4815°
Eccentric anomaly
55.48621°
Mean motion
3.92547 °/min
Orbital period
91.71 mins
BSTAR
0.0011575
Loading maneuver chart data...
Computing Atmospheric mass density...
Loading historical data...
Loading historical data...
Loading historical data...
Loading historical data...
Loading historical data...
Loading historical data...
Loading historical data...

Documentation

Showing up to 5 results
|